GS0511 Weather Reports


time (UTC)temp
C
wind
direction
speed
KPH
gust
KPH
rain 1hr
cm
rain 24hr
cm
rain mn
cm
humidity
%
barometer
mb
20260505183000 19 226 16.1 41.8 0.00 0.05 0.05 65 1006.4
20260505181500 19 273 16.1 38.6 0.00 0.05 0.05 66 1006.0
20260505180005 19 225 14.5 32.2 0.00 0.05 0.05 65 1005.9
20260505173000 19 236 14.5 43.5 0.00 0.05 0.05 65 1005.9
20260505171500 20 229 12.9 35.4 0.00 0.05 0.05 66 1005.6
20260505170006 19 270 14.5 30.6 0.00 0.05 0.05 66 1005.5
20260505164500 18 218 11.3 25.7 0.00 0.05 0.05 69 1005.5
20260505163000 17 205 9.7 20.9 0.00 0.05 0.05 69 1005.8
20260505161500 18 223 11.3 24.1 0.00 0.05 0.05 69 1005.8
20260505151459 18 265 8.0 20.9 0.00 0.05 0.05 67 1004.3
20260505124501 19 171 9.7 22.5 0.00 0.05 0.05 67 1003.6
20260505122959 18 163 8.0 17.7 0.00 0.05 0.05 72 1003.6
20260505121500 18 190 8.0 19.3 0.00 0.05 0.05 72 1003.4
20260505114500 17 167 8.0 19.3 0.00 0.05 0.05 73 1003.3
20260505112959 17 164 8.0 19.3 0.00 0.05 0.05 74 1003.3
20260505111459 17 182 9.7 16.1 0.00 0.05 0.05 74 1003.0
20260505101459 16 197 6.4 12.9 0.00 0.05 0.05 78 1002.5
20260505091459 14 113 1.6 6.4 0.00 0.05 0.05 85 1002.4
20260505090002 13 171 3.2 8.0 0.00 0.05 0.05 86 1002.6
20260505082958 13 174 1.6 3.2 0.03 0.05 0.05 89 1002.9
20260505081458 13 157 0.0 3.2 0.03 0.05 0.05 88 1003.0
20260505080002 14 189 1.6 4.8 0.03 0.05 0.05 87 1003.1
20260505074459 14 189 1.6 6.4 0.03 0.03 0.03 86 1003.3
20260505072959 15 250 3.2 8.0 0.03 0.03 0.03 86 1003.6
20260505071458 15 208 3.2 9.7 0.03 0.03 0.03 86 1004.0
20260505070001 15 173 6.4 14.5 0.03 0.03 0.03 84 1003.6
20260505064458 16 213 12.9 29.0 0.00 0.00 0.00 80 1003.7
20260505062958 16 184 4.8 20.9 0.00 0.00 0.00 76 1003.8
20260505060001 16 157 3.2 9.7 0.00 0.00 0.00 74 1003.7
20260505054458 16 187 4.8 11.3 0.00 0.00 0.00 73 1003.7
20260505051459 17 150 6.4 14.5 0.00 0.00 0.00 70 1003.9
20260505041458 17 200 4.8 12.9 0.00 0.00 0.00 66 1003.9
20260505040006 17 190 6.4 12.9 0.00 0.00 0.00 66 1004.1
20260505034501 17 219 6.4 16.1 0.00 0.00 0.00 65 1004.1
20260505033001 16 192 4.8 14.5 0.00 0.00 0.00 64 1004.2
20260505030005 14 202 1.6 24.1 0.00 0.00 0.00 65 1004.7
20260505024502 13 210 0.0 0.0 0.00 0.00 0.00 71 1004.0
20260505023001 13 210 0.0 0.0 0.00 0.00 0.00 72 1003.9
20260505021501 14 210 0.0 0.0 0.00 0.00 0.00 70 1003.8
20260505020008 14 210 0.0 1.6 0.00 0.00 0.00 68 1004.0
20260505014501 15 210 0.0 1.6 0.00 0.00 0.00 64 1004.1
20260505011501 15 210 0.0 0.0 0.00 0.00 0.00 59 1004.0
20260505010007 16 210 0.0 1.6 0.00 0.00 0.00 58 1003.9
20260505003001 18 210 0.0 1.6 0.00 0.00 0.00 51 1004.0
20260505001501 19 210 0.0 3.2 0.00 0.00 0.00 47 1004.0
20260504234501 20 205 3.2 6.4 0.00 0.00 0.00 44 1004.0
20260504233002 21 271 1.6 6.4 0.00 0.00 0.00 44 1004.0
20260504230005 22 267 4.8 11.3 0.00 0.00 0.00 40 1003.9
20260504224502 22 325 9.7 16.1 0.00 0.00 0.00 39 1003.9
20260504223001 22 261 8.0 17.7 0.00 0.00 0.00 37 1003.7
20260504221502 23 308 6.4 14.5 0.00 0.00 0.00 39 1003.6
20260504220007 23 289 6.4 11.3 0.00 0.00 0.00 38 1003.6
20260504214500 23 266 6.4 19.3 0.00 0.00 0.00 38 1003.7
20260504213000 23 183 8.0 17.7 0.00 0.00 0.00 39 1004.0
20260504210004 23 251 9.7 25.7 0.00 0.00 0.00 38 1003.8
20260504204500 23 215 9.7 16.1 0.00 0.00 0.00 41 1003.9
20260504203000 22 225 11.3 22.5 0.00 0.00 0.00 41 1004.1
20260504201500 23 277 9.7 17.7 0.00 0.00 0.00 41 1004.2
20260504194500 22 223 11.3 29.0 0.00 0.00 0.00 41 1004.7
20260504193000 22 229 12.9 27.4 0.00 0.00 0.00 42 1004.9
20260504191500 22 234 11.3 24.1 0.00 0.00 0.00 43 1005.1